Terminal Aerodrome Forecast
Issued by NWS Charleston, WV

Current Version | Previous Version | Text Only | Print | Product List | Glossary Off
Versions: 1 2 3 4 5 6 7 8 9 10 11 12 13 14 15 16 17 18 19 20 21 22 23 24 25 26 27 28

000
FTUS41 KRLX 291100
TAFCRW
TAF
KCRW 291128Z 2912/3012 00000KT 6SM BR OVC005
     FM291400 00000KT 6SM BR HZ SCT004 BKN008
     FM291600 35004KT P6SM BKN012
     FM291800 32004KT P6SM SCT025 BKN040
     FM300500 00000KT 6SM BR SCT150
     FM300600 00000KT 5SM BR SCT150
     FM300700 00000KT 2SM BR SCT150=

USA.gov is the U.S. government's official web portal to all federal, state and local government web resources and services.